Terminal Aerodrome Forecast
Issued by NWS Amarillo, TX

Home | Current Version | Previous Version | Text Only | Print | Product List | Glossary On
Versions: 1 2 3 4 5 6 7 8 9 10 11 12 13 14 15 16 17 18 19
000
FTUS44 KAMA 291000 AAB
TAFAMA
TAF AMD
KAMA 291006Z 2910/3006 VRB05KT 1/4SM FG VV001
     FM291400 36008KT P6SM SCT060 SCT250
     FM300100 13008KT P6SM FEW250=

USA.gov is the U.S. government's official web portal to all federal, state and local government web resources and services.